Погода в Октябрьском

Россия / Республика Марий Эл     56°18′47″N   48°36′07″E
темп.,
°C
ветер,
м/с
пор.,
м/с
влажн.,
%
обл.,
%
осадки,
мм/ч
давл.,
гПа
погр.,
м
14 апреля, ср
ср1400:00+3ююв22929 0.0 103117
03:00+2ююв229251 0.0 103118
06:00+3ююв249348 0.0 103054
09:00+11ююв35781 0.0 1029203
12:00+15ююв36695 0.0 1028462
15:00+17ююв36605 0.0 1026879
18:00+12юв24895 0.0 102473
21:00+9ююв25945 0.0 102469
15 апреля, чт
чт1500:00+8ююв229614 0.0 102337
03:00+7ююв129616 0.0 102315
06:00+7ююв23956 0.0 102264
09:00+13ю24760 0.0 1021418
12:00+16ю236455 0.0 10201108
15:00+17ю235987 0.1 10191196
18:00+14в0069100 0.0 101811
21:00+13ссв1173100 0.0 101912
16 апреля, пт
пт1600:00+8св51189100 0.0 1021422
03:00+7св51288100 0.0 1022508
06:00+6св51288100 0.1 1023630
09:00+6всв5118591 0.1 1025567
12:00+9всв586647 0.0 1026793
15:00+11всв465415 0.0 10251119
18:00+9св48555 0.0 1026428
21:00+5св411650 0.0 1027312
17 апреля, сб
сб1700:00+3св311700 0.0 1028242
03:00+1св310750 0.0 1028203
06:00+2св310705 0.0 1029287
09:00+8св46430 0.0 1030824
12:00+11св45364 0.0 10291435
15:00+12ссв45385 0.0 10281643
18:00+9ссв25525 0.0 1028138
21:00+5ссв22675 0.0 102916
18 апреля, вс
вс1800:00+4с24755 0.0 102975
03:00+2ссв27802 0.0 1030140
06:00+3ссв27765 0.0 1031198
09:00+9ссв35525 0.0 10301062
12:00+11ссв464477 0.0 10301862
15:00+10ссв5545100 0.0 10301869
18:00+8св475985 0.0 1032808
21:00+3св39715 0.0 1033235